Погода Илыинский

Погода Илыинский : погода сейчас, прогноз погоды и архив. Всё, что Вы хотите узнать о погоде Илыинский!

Хотите узнать прогноз погоды Илыинский? Тогда Вам сюда: Погода Илыинский

Поиск расширенной информации на нашем сайте:

Другие новости

Новости СМИ2

Главная страница сайта

Новости сайта

02.10.2013

Напоминаем, что на нашем новом сайте вы можете получить высокодетализированные прогнозы погоды по пунктам России, СНГ и мира (включающие важные для авиации метеовеличины, такие как направление и скорость ветра, видимость, явления погоды, количество и форма облачности, нижняя и верхняя граница облачности), а также ознакомиться с разнообразными материалами по авиационной метеорологии и подборкой полезных ссылок на эту тему.

Сайт Метеоцентр.Азия посвящён разработке технологий оптимизации авиаметеорологического обслуживания, включая проектирование и перспективное создание нескольких автоматизированных авиаметеорологических систем:
- система выпуска высокодетальных прогностических карт явлений погоды для нижнего воздушного пространства по России и ближнему зарубежью;
- система верификации прогнозов TAF (выпускаемых синоптиками официальных АМСГ РФ и ближнего зарубежья) и AUTOTAF (выпускаемых сайтом Метеоцентр.Азия) - выявление ошибок, онлайн-сопоставление с фактической погодой METAR, автоматическое внесение коррективов в прогнозы при резком отклонении фактической погоды от прогноза, подсчёт оправдываемости прогнозов по элементам и в целом;
- система обработки, анализа и отображения авиаметеорологической информации для применения провайдерами метеорологической информации.

Рекомендуем: Проверенные лично мной дженерики виагры. Доставка виагры в день заказа.

Погода Илыинский - сегодня

Время (UTC), дата Ветер
(°,м/с) 
Видим.   Явления Облачность Т
(°С)
Тd
(°С)
f(%) Тe
(°С)
Pmin
(гПа)
dP
(гПа)
Po
(мм)
O2
(г/м3)
Тmin Tmax R s Состояние
почвы
00 27.04.17 260 (З) 1-2{04}  20000 м    10/10 600 м кучево-дожд. 
[Cb cap]
+3.2 +0.7 84 +4  1001.6  -1  749  298           
03 27.04.17 290 (З) 3-6{05}  20000 м    10/10 600 м кучево-дожд. 
[Cb cap]
+4.3 +0.9 79 +3  1000.1  -1.4  748  297           
06 27.04.17 320 (СЗ) 5-7{08}  20000 м    10/8 600 м кучево-дожд., верхняя 
[Cb cap|Ci fib]
+2.5 +0.5 87 999.4  -0.7  748  298           
09 27.04.17 270 (З) 2-3{07}  20000 м    10/3 600 м верхняя 
[St|Ci fib]
+1.4 -0.4 88 +1  998.8  -0.6  747  300    +4.6       
12 27.04.17 210 (ЮЗ) 1-3{04}  10 км    10/3 300 м верхняя 
[St|Ci fib]
+0 -0.6 96 +1  999.5  0.7  748  301           
15 27.04.17 270 (З) 3-6{08}  10 км    10/0 верхняя 
[Ci fib]
-0.7 -1.6 94 -3  999.3  -0.2  748  302           
18 27.04.17 290 (З) 5-8{08}  10 км    10/4 300 м верхняя 
[St|Ci fib]
-1.2 -2.1 94 -4  999  -0.3  748  303           
21 27.04.17 300 (СЗ) 3-6{08}  20000 м    10/10 300 м 
[St]
-0.1 -1.4 91 -2  999.4  0.4  748  302  -1.3         
00 28.04.17 260 (З) 4-7{06}  20000 м    10/10 300 м 
[St]
+0.7 -0.4 92 -2  1000.6  1.2  749  301           
03 28.04.17 220 (ЮЗ) 6-9{09}  20000 м    10/10 300 м 
[St]
+2.3 +0.7 89 -1  1001.2  0.5  749  299           
06 28.04.17 240 (ЮЗ) 5-7{09}  20000 м    10/10 300 м 
[St]
+2.7 +0.6 86 1001.6  0.4  749  299           
09 28.04.17 230 (ЮЗ) 3-5{08}  20000 м    10/10 300 м 
[St]
+2.8 +0.8 87 +1  1001.9  0.3  750  299    +3.1       
12 28.04.17 260 (З) 1-2{07}  10 км    10/10 300 м 
[St]
+3.1 +1.4 89 +4  1002.6  0.8  750  299           
15 28.04.17 310 (СЗ) 1-1{04}  10 км    9/9 300 м 
[St]
+3.2 +1.8 91 +4  1002.3  -0.4  750  298           
18 28.04.17 090 (В) 1-2{02}  10 км    9/9 600 м кучево-дожд. 
[Cb cap]
+3.3 +1 85 +4  1001.4  -0.9  749  298           
21 28.04.17 080 (В) 5-7{07}  20000 м    10/10 600 м кучево-дожд. 
[Cb cap]
+3.4 +0.5 81 +1  1000.8  -0.5  749  298  +2.2         
00 29.04.17 100 (В) 4-7{08}  20000 м    10/10 600 м кучево-дожд. 
[Cb cap]
+5 +1 75 +3  1000.6  -0.2  749  296           
03 29.04.17 100 (В) 4-6{09}  20000 м    10/10 600 м кучево-дожд. 
[Cb cap]
+5.2 +1.5 77 +4  1000.8  0.2  749  296           
06 29.04.17 090 (В) 4-7{08}  20000 м    10/10 600 м кучево-дожд. 
[Cb cap]
+4.9 +1.8 80 +3  1000.9  749  296           
09 29.04.17 090 (В) 4-6{09}  20000 м    10/10 600 м кучево-дожд. 
[Cb cap]
+2.5 +1 90 1003  751  300    +6.4       
12 29.04.17 090 (В) 3-8{10}  10 км  {ливн. осадки}  10/10 600 м кучево-дожд. 
[Cb cap]
+2.5 +1.2 91 +1  1004.7  1.7  752  300           
15 29.04.17 080 (В) 8-13{13}  10 км    10/10 600 м кучево-дожд. 
[Cb cap]
+2 +1.1 94 -2  1004.2  -0.5  751  300           
18 29.04.17 090 (В) 7-11{13}  10 км    10/10 600 м кучево-дожд. 
[Cb cap]
+1.7 +0.7 93 -2  1004.4  0.3  752  301           
21 29.04.17 070 (В) 8-13{14}  20000 м  слаб. ливневой дождь  10/10 300 м кучево-дожд. 
[Cb cap]
+1.4 +0.1 91 -3  1004.3  0.1  752  301  +1.1       
00 30.04.17 070 (В) 6-11{13}  20000 м  слаб. ливневой дождь  10/10 300 м кучево-дожд. 
[Cb cap]
+1.8 +0.8 93 -1  1005.3  0.9  752  301           
Время (UTC), дата Ветер
(°,м/с) 
Видим.   Явления Облачность Т
(°С)
Тd
(°С)
f(%) Тe
(°С)
Pmin
(гПа)
dP
(гПа)
Po
(мм)
O2
(г/м3)
Тmin Tmax R s Состояние
почвы

Для получения пояснительной информации подведите курсор к названию столбца.

ПОГОДА Илыинский - архив

Всё, что Вы хотите узнать о погоде Илыинский - удобно и подробно!

Выберите нужную дату (начиная с 1 января 2015* года) и нажмите кнопку "Найти".
Будут отображены архивные сводки погоды по пункту Илыинский, начиная с указанной даты.


Отображать данные в формате CSV (для использования в таблицах Excel)


Внимание! Наш архив погоды предназначен исключительно для личного некоммерческого использования в познавательных целях. Если Вам необходимы официальные справки о состоянии погоды (для производственных, юридических, коммерческих и т.п. целей), обращайтесь в органы Росгидромета.

*Примечание: данная дата относится к архиву по метеостанциям СССР (Россия, СНГ, Балтия).
Архив по метеостанциям Зарубежной Европы и Азии (кроме Китая) хранится 10 дней, по другим регионам земного шара (Китай, Африка, Америка, Австралия, Океания) - 1 день.

Илыинский - район местоположения метеостанции


Название, широта, долгота, высота метеостанции:
Илыинский 48°ш. 142.2°д. 18 м над ур. моря [Российская Федерация]

Дополнительная информация

В oтличие oт бoльшинства пoгoдных сайтoв мы публикуем пoдрoбную метеoинфoрмацию в детальнoм прoфессиoнальнoм фoрмате.

Характеристики температуры и влажнoсти вoздуха измеряются на высoте 2 м в тени вдали oт зданий и деревьев.
Скoрoсть ветра измеряется на высoте 10 м (на урoвне рoста челoвека скoрoсть ветра ниже в 1.5-2 раза). Если метеoстанция нахoдится в гoрoде или в лесу, тo скoрoсть ветра занижена на 2-4 м/с пo сравнению с oткрытым местoм. Скoрoсть ветра над акватoриями крупных рек и oзёр, а также на вершинах хoлмoв на 2-5 м/с выше, чем в oбычных услoвиях.
Атмoсфернoе давление в разных тoчках местнoсти мoжет значительнo oтличаться oт давления на метеoстанции, в зависимoсти oт услoвий рельефа (при пoдъёме на 10 м давление пoнижается примернo на 1 мм рт.ст.).